Powrót do katalogu

DELTA 1 DEB

AktywnySSO
NORAD 14463·DEBRIS·🇺🇸 United States

Wystrzelony Mar 5, 1978 z Vandenberg Space Force Base

Loading…

Następne Przeloty (najbliższe 24 godziny)

TLE

ŚwieżeSource: Space-Track

Epoka: Sep 14, 2026, 10:43 UTC

1 14463U 78026GD  26257.44680527  .00000619  00000-0  29866-3 0  9999
2 14463  98.8616 152.2502 0119209 123.7084 289.7632 14.18544787310619

Śledź DELTA 1 DEB w czasie rzeczywistym z AllMySat

Download on the App Store